Time,TemperatureF,DewpointF,PressureIn,WindDirection,WindDirectionDegrees,WindSpeedMPH,WindSpeedGustMPH,Humidity,HourlyPrecipIn,Conditions,Clouds,dailyrainin,SoftwareType,DateUTC
2013-07-01 00:02:00,57.2,51.4,29.95,NE,48,0.0,0.0,81,0.00,,,0.00,Wunderground v.1.15,2013-07-01 05:02:00,
2013-07-01 00:08:00,57.1,51.7,29.95,NE,48,0.0,0.0,82,0.00,,,0.00,Wunderground v.1.15,2013-07-01 05:08:00,
2013-07-01 00:14:00,56.9,51.5,29.95,NE,48,0.0,0.0,82,0.00,,,0.00,Wunderground v.1.15,2013-07-01 05:14:00,
2013-07-01 00:20:00,56.9,51.5,29.95,NE,48,0.0,0.0,82,0.00,,,0.00,Wunderground v.1.15,2013-07-01 05:20:00,
2013-07-01 00:26:00,56.9,51.5,29.95,NE,48,0.0,0.0,82,0.00,,,0.00,Wunderground v.1.15,2013-07-01 05:26:00,
2013-07-01 00:32:00,57.0,51.9,29.95,NE,48,0.0,0.0,83,0.00,,,0.00,Wunderground v.1.15,2013-07-01 05:32:00,
2013-07-01 00:38:00,57.2,52.1,29.95,NE,48,0.0,0.0,83,0.00,,,0.00,Wunderground v.1.15,2013-07-01 05:38:00,
2013-07-01 00:44:00,57.4,52.3,29.95,NE,48,0.0,0.0,83,0.00,,,0.00,Wunderground v.1.15,2013-07-01 05:44:00,
2013-07-01 00:50:00,57.7,52.2,29.95,NE,48,0.0,0.0,82,0.00,,,0.00,Wunderground v.1.15,2013-07-01 05:50:00,
2013-07-01 00:56:00,57.9,51.8,29.95,NE,48,0.0,0.0,80,0.00,,,0.00,Wunderground v.1.15,2013-07-01 05:56:00,
2013-07-01 01:02:00,58.2,51.7,29.94,NE,48,0.0,0.0,79,0.00,,,0.00,Wunderground v.1.15,2013-07-01 06:02:00,
2013-07-01 01:08:00,58.4,51.6,29.94,NE,48,0.0,0.0,78,0.00,,,0.00,Wunderground v.1.15,2013-07-01 06:08:00,
2013-07-01 01:14:00,58.7,51.5,29.94,NE,48,0.0,0.0,77,0.00,,,0.00,Wunderground v.1.15,2013-07-01 06:14:00,
2013-07-01 01:20:00,58.8,51.6,29.94,NE,48,0.0,0.0,77,0.00,,,0.00,Wunderground v.1.15,2013-07-01 06:20:00,
2013-07-01 01:26:00,58.8,51.6,29.94,NE,48,0.0,0.0,77,0.00,,,0.00,Wunderground v.1.15,2013-07-01 06:26:00,
2013-07-01 01:32:00,58.7,51.2,29.94,NE,48,0.0,0.0,76,0.00,,,0.00,Wunderground v.1.15,2013-07-01 06:32:00,
2013-07-01 01:38:00,58.7,51.2,29.94,NE,48,0.0,1.0,76,0.00,,,0.00,Wunderground v.1.15,2013-07-01 06:38:00,
2013-07-01 01:44:00,58.7,50.8,29.94,NE,48,0.0,0.0,75,0.00,,,0.00,Wunderground v.1.15,2013-07-01 06:44:00,
2013-07-01 01:50:00,58.6,50.7,29.94,NE,48,0.0,2.0,75,0.00,,,0.00,Wunderground v.1.15,2013-07-01 06:50:00,
2013-07-01 01:56:00,58.6,50.3,29.94,NE,49,0.0,0.0,74,0.00,,,0.00,Wunderground v.1.15,2013-07-01 06:56:00,
2013-07-01 02:02:00,58.6,50.7,29.94,NE,49,0.0,0.0,75,0.00,,,0.00,Wunderground v.1.15,2013-07-01 07:02:00,
2013-07-01 02:08:00,58.5,50.6,29.94,NE,44,0.0,0.0,75,0.00,,,0.00,Wunderground v.1.15,2013-07-01 07:08:00,
2013-07-01 02:14:00,58.3,50.4,29.94,NE,44,0.0,0.0,75,0.00,,,0.00,Wunderground v.1.15,2013-07-01 07:14:00,
2013-07-01 02:20:00,58.2,50.7,29.94,NE,44,0.0,0.0,76,0.00,,,0.00,Wunderground v.1.15,2013-07-01 07:20:00,
2013-07-01 02:26:00,58.0,50.5,29.94,NE,54,1.0,4.0,76,0.00,,,0.00,Wunderground v.1.15,2013-07-01 07:26:00,
2013-07-01 02:32:00,57.8,50.6,29.94,NE,55,1.0,2.0,77,0.00,,,0.00,Wunderground v.1.15,2013-07-01 07:32:00,
2013-07-01 02:38:00,57.6,50.8,29.94,NE,53,0.0,2.0,78,0.00,,,0.00,Wunderground v.1.15,2013-07-01 07:38:00,
2013-07-01 02:44:00,57.4,50.6,29.94,NE,53,0.0,0.0,78,0.00,,,0.00,Wunderground v.1.15,2013-07-01 07:44:00,
2013-07-01 02:50:00,57.3,50.8,29.94,NE,53,0.0,0.0,79,0.00,,,0.00,Wunderground v.1.15,2013-07-01 07:50:00,
2013-07-01 02:56:00,57.1,50.6,29.94,NE,53,0.0,0.0,79,0.00,,,0.00,Wunderground v.1.15,2013-07-01 07:56:00,
2013-07-01 03:02:00,57.2,50.7,29.94,NE,53,0.0,0.0,79,0.00,,,0.00,Wunderground v.1.15,2013-07-01 08:02:00,
2013-07-01 03:08:00,57.4,50.9,29.94,NE,53,0.0,1.0,79,0.00,,,0.00,Wunderground v.1.15,2013-07-01 08:08:00,
2013-07-01 03:14:00,57.6,51.1,29.94,NE,53,0.0,0.0,79,0.00,,,0.00,Wunderground v.1.15,2013-07-01 08:14:00,
2013-07-01 03:20:00,57.7,51.2,29.94,NE,42,0.0,0.0,79,0.00,,,0.00,Wunderground v.1.15,2013-07-01 08:20:00,
2013-07-01 03:26:00,57.8,51.3,29.94,NE,42,0.0,0.0,79,0.00,,,0.00,Wunderground v.1.15,2013-07-01 08:26:00,
2013-07-01 03:32:00,57.7,51.6,29.94,NE,42,0.0,0.0,80,0.00,,,0.00,Wunderground v.1.15,2013-07-01 08:32:00,
2013-07-01 03:38:00,57.5,51.0,29.95,NE,42,0.0,0.0,79,0.00,,,0.00,Wunderground v.1.15,2013-07-01 08:38:00,
2013-07-01 03:44:00,57.5,51.0,29.95,NE,42,0.0,0.0,79,0.00,,,0.00,Wunderground v.1.15,2013-07-01 08:44:00,
2013-07-01 03:50:00,57.4,50.9,29.95,NE,42,0.0,2.0,79,0.00,,,0.00,Wunderground v.1.15,2013-07-01 08:50:00,
2013-07-01 03:56:00,57.3,51.2,29.95,NE,42,0.0,0.0,80,0.00,,,0.00,Wunderground v.1.15,2013-07-01 08:56:00,
2013-07-01 04:02:00,57.0,50.9,29.95,NE,42,0.0,0.0,80,0.00,,,0.00,Wunderground v.1.15,2013-07-01 09:02:00,
2013-07-01 04:08:00,56.8,50.7,29.95,NE,51,0.0,2.0,80,0.00,,,0.00,Wunderground v.1.15,2013-07-01 09:08:00,
2013-07-01 04:14:00,56.7,50.9,29.95,NE,53,1.0,1.0,81,0.00,,,0.00,Wunderground v.1.15,2013-07-01 09:14:00,
2013-07-01 04:20:00,56.5,50.7,29.95,NE,52,1.0,1.0,81,0.00,,,0.00,Wunderground v.1.15,2013-07-01 09:20:00,
2013-07-01 04:26:00,56.4,51.0,29.95,NE,52,0.0,1.0,82,0.00,,,0.00,Wunderground v.1.15,2013-07-01 09:26:00,
2013-07-01 04:32:00,56.2,50.8,29.95,NE,50,0.0,0.0,82,0.00,,,0.00,Wunderground v.1.15,2013-07-01 09:32:00,
2013-07-01 04:38:00,56.0,50.9,29.95,NE,49,0.0,0.0,83,0.00,,,0.00,Wunderground v.1.15,2013-07-01 09:38:00,
2013-07-01 04:44:00,55.8,50.7,29.95,NE,49,0.0,0.0,83,0.00,,,0.00,Wunderground v.1.15,2013-07-01 09:44:00,
2013-07-01 04:50:00,55.5,50.7,29.96,NE,49,0.0,0.0,84,0.00,,,0.00,Wunderground v.1.15,2013-07-01 09:50:00,
2013-07-01 04:56:00,55.3,50.9,29.96,NE,49,0.0,0.0,85,0.00,,,0.00,Wunderground v.1.15,2013-07-01 09:56:00,
2013-07-01 05:02:00,55.0,50.9,29.96,NE,49,0.0,0.0,86,0.00,,,0.00,Wunderground v.1.15,2013-07-01 10:02:00,
2013-07-01 05:08:00,54.9,50.8,29.96,NE,49,0.0,0.0,86,0.00,,,0.00,Wunderground v.1.15,2013-07-01 10:08:00,
2013-07-01 05:14:00,54.8,51.0,29.96,NE,49,0.0,0.0,87,0.00,,,0.00,Wunderground v.1.15,2013-07-01 10:14:00,
2013-07-01 05:20:00,54.8,50.7,29.96,NE,49,0.0,0.0,86,0.00,,,0.00,Wunderground v.1.15,2013-07-01 10:20:00,
2013-07-01 05:26:00,55.0,50.9,29.97,NE,47,1.0,1.0,86,0.00,,,0.00,Wunderground v.1.15,2013-07-01 10:26:00,
2013-07-01 05:32:00,55.2,51.1,29.96,NE,48,0.0,0.0,86,0.00,,,0.00,Wunderground v.1.15,2013-07-01 10:32:00,
2013-07-01 05:38:00,55.2,51.1,29.97,NE,48,0.0,0.0,86,0.00,,,0.00,Wunderground v.1.15,2013-07-01 10:38:00,
2013-07-01 05:44:00,55.1,51.0,29.97,NE,49,0.0,0.0,86,0.00,,,0.00,Wunderground v.1.15,2013-07-01 10:44:00,
2013-07-01 05:50:00,55.1,51.0,29.97,NE,49,0.0,0.0,86,0.00,,,0.00,Wunderground v.1.15,2013-07-01 10:50:00,
2013-07-01 05:56:00,55.2,51.1,29.97,NE,49,0.0,1.0,86,0.00,,,0.00,Wunderground v.1.15,2013-07-01 10:56:00,
2013-07-01 06:02:00,55.4,51.3,29.97,NE,50,0.0,0.0,86,0.00,,,0.00,Wunderground v.1.15,2013-07-01 11:02:00,
2013-07-01 06:08:00,55.7,51.6,29.97,NE,51,0.0,1.0,86,0.00,,,0.00,Wunderground v.1.15,2013-07-01 11:08:00,
2013-07-01 06:14:00,55.9,51.8,29.97,NE,54,1.0,3.0,86,0.00,,,0.00,Wunderground v.1.15,2013-07-01 11:14:00,
2013-07-01 06:20:00,56.1,52.0,29.97,NE,54,1.0,1.0,86,0.00,,,0.00,Wunderground v.1.15,2013-07-01 11:20:00,
2013-07-01 06:26:00,56.4,51.9,29.98,NE,51,0.0,1.0,85,0.00,,,0.00,Wunderground v.1.15,2013-07-01 11:26:00,
2013-07-01 06:32:00,56.6,52.1,29.98,NE,52,0.0,0.0,85,0.00,,,0.00,Wunderground v.1.15,2013-07-01 11:32:00,
2013-07-01 06:38:00,56.9,52.4,29.98,NE,49,0.0,0.0,85,0.00,,,0.00,Wunderground v.1.15,2013-07-01 11:38:00,
2013-07-01 06:44:00,57.3,52.5,29.98,NE,51,0.0,0.0,84,0.00,,,0.00,Wunderground v.1.15,2013-07-01 11:44:00,
2013-07-01 06:50:00,57.8,52.7,29.98,NE,46,0.0,0.0,83,0.00,,,0.00,Wunderground v.1.15,2013-07-01 11:50:00,
2013-07-01 06:56:00,58.4,52.9,29.98,NE,49,1.0,3.0,82,0.00,,,0.00,Wunderground v.1.15,2013-07-01 11:56:00,
2013-07-01 07:02:00,58.9,53.1,29.98,NE,43,2.0,2.0,81,0.00,,,0.00,Wunderground v.1.15,2013-07-01 12:02:00,
2013-07-01 07:08:00,59.3,53.1,29.98,NE,44,2.0,5.0,80,0.00,,,0.00,Wunderground v.1.15,2013-07-01 12:08:00,
2013-07-01 07:14:00,59.7,53.5,29.98,NE,43,3.0,3.0,80,0.00,,,0.00,Wunderground v.1.15,2013-07-01 12:14:00,
2013-07-01 07:20:00,60.1,53.6,29.99,NE,50,3.0,5.0,79,0.00,,,0.00,Wunderground v.1.15,2013-07-01 12:20:00,
2013-07-01 07:26:00,60.7,53.8,29.99,NE,55,3.0,5.0,78,0.00,,,0.00,Wunderground v.1.15,2013-07-01 12:26:00,
2013-07-01 07:32:00,61.3,53.7,29.99,NE,46,2.0,3.0,76,0.00,,,0.00,Wunderground v.1.15,2013-07-01 12:32:00,
2013-07-01 07:38:00,62.0,53.2,29.99,NE,40,3.0,7.0,73,0.00,,,0.00,Wunderground v.1.15,2013-07-01 12:38:00,
2013-07-01 07:44:00,62.7,53.5,29.99,NE,49,4.0,8.0,72,0.00,,,0.00,Wunderground v.1.15,2013-07-01 12:44:00,
2013-07-01 07:50:00,63.3,53.3,29.99,NE,44,4.0,8.0,70,0.00,,,0.00,Wunderground v.1.15,2013-07-01 12:50:00,
2013-07-01 07:56:00,63.9,53.1,29.99,NE,41,4.0,5.0,68,0.00,,,0.00,Wunderground v.1.15,2013-07-01 12:56:00,
2013-07-01 08:02:00,64.3,53.5,30.00,NNE,28,5.0,5.0,68,0.00,,,0.00,Wunderground v.1.15,2013-07-01 13:02:00,
2013-07-01 08:08:00,64.8,53.2,30.00,NE,50,6.0,6.0,66,0.00,,,0.00,Wunderground v.1.15,2013-07-01 13:08:00,
2013-07-01 08:14:00,65.2,53.6,30.00,NE,43,6.0,8.0,66,0.00,,,0.00,Wunderground v.1.15,2013-07-01 13:14:00,
2013-07-01 08:20:00,65.7,53.6,30.00,NE,48,5.0,8.0,65,0.00,,,0.00,Wunderground v.1.15,2013-07-01 13:20:00,
2013-07-01 08:26:00,66.1,53.6,30.00,NE,38,5.0,10.0,64,0.00,,,0.00,Wunderground v.1.15,2013-07-01 13:26:00,
2013-07-01 08:32:00,66.4,53.4,30.00,East,94,6.0,11.0,63,0.00,,,0.00,Wunderground v.1.15,2013-07-01 13:32:00,
2013-07-01 08:38:00,66.8,53.4,30.00,NE,47,6.0,11.0,62,0.00,,,0.00,Wunderground v.1.15,2013-07-01 13:38:00,
2013-07-01 08:44:00,67.1,54.5,30.00,NE,42,7.0,8.0,64,0.00,,,0.00,Wunderground v.1.15,2013-07-01 13:44:00,
2013-07-01 08:50:00,67.4,54.4,30.00,NE,38,7.0,10.0,63,0.00,,,0.00,Wunderground v.1.15,2013-07-01 13:50:00,
2013-07-01 08:56:00,67.6,53.2,30.00,NE,48,8.0,13.0,60,0.00,,,0.00,Wunderground v.1.15,2013-07-01 13:56:00,
2013-07-01 09:02:00,67.9,54.4,30.00,NE,38,8.0,10.0,62,0.00,,,0.00,Wunderground v.1.15,2013-07-01 14:02:00,
2013-07-01 09:08:00,68.1,53.7,30.00,ENE,67,8.0,10.0,60,0.00,,,0.00,Wunderground v.1.15,2013-07-01 14:08:00,
2013-07-01 09:14:00,68.6,54.2,30.00,NE,47,6.0,11.0,60,0.00,,,0.00,Wunderground v.1.15,2013-07-01 14:14:00,
2013-07-01 09:20:00,68.8,53.4,30.00,NE,54,8.0,8.0,58,0.00,,,0.00,Wunderground v.1.15,2013-07-01 14:20:00,
2013-07-01 09:26:00,69.3,53.9,30.00,NNE,23,7.0,8.0,58,0.00,,,0.00,Wunderground v.1.15,2013-07-01 14:26:00,
2013-07-01 09:32:00,69.5,53.6,30.00,NE,48,7.0,11.0,57,0.00,,,0.00,Wunderground v.1.15,2013-07-01 14:32:00,
2013-07-01 09:38:00,70.0,53.6,30.00,NE,45,7.0,11.0,56,0.00,,,0.00,Wunderground v.1.15,2013-07-01 14:38:00,
2013-07-01 09:44:00,70.2,52.8,30.00,NE,43,8.0,13.0,54,0.00,,,0.00,Wunderground v.1.15,2013-07-01 14:44:00,
2013-07-01 09:50:00,70.4,52.4,30.00,NE,51,9.0,14.0,53,0.00,,,0.00,Wunderground v.1.15,2013-07-01 14:50:00,
2013-07-01 09:56:00,70.5,53.6,30.00,NE,39,9.0,14.0,55,0.00,,,0.00,Wunderground v.1.15,2013-07-01 14:56:00,
2013-07-01 10:02:00,70.9,52.9,30.00,NE,35,9.0,9.0,53,0.00,,,0.00,Wunderground v.1.15,2013-07-01 15:02:00,
2013-07-01 10:08:00,71.2,55.2,30.00,NE,38,8.0,9.0,57,0.00,,,0.00,Wunderground v.1.15,2013-07-01 15:08:00,
2013-07-01 10:14:00,71.4,53.9,30.00,NE,46,6.0,9.0,54,0.00,,,0.00,Wunderground v.1.15,2013-07-01 15:14:00,
2013-07-01 10:20:00,71.4,53.4,30.00,NE,40,7.0,9.0,53,0.00,,,0.00,Wunderground v.1.15,2013-07-01 15:20:00,
2013-07-01 10:26:00,71.5,53.5,30.00,NE,49,8.0,10.0,53,0.00,,,0.00,Wunderground v.1.15,2013-07-01 15:26:00,
2013-07-01 10:32:00,71.7,54.7,30.00,NE,56,8.0,12.0,55,0.00,,,0.00,Wunderground v.1.15,2013-07-01 15:32:00,
2013-07-01 10:38:00,72.0,54.4,30.00,NE,39,8.0,12.0,54,0.00,,,0.00,Wunderground v.1.15,2013-07-01 15:38:00,
2013-07-01 10:44:00,72.1,53.5,30.00,NE,54,8.0,14.0,52,0.00,,,0.00,Wunderground v.1.15,2013-07-01 15:44:00,
2013-07-01 10:50:00,72.4,55.8,30.00,NE,56,7.0,14.0,56,0.00,,,0.00,Wunderground v.1.15,2013-07-01 15:50:00,
2013-07-01 10:56:00,72.6,54.5,30.00,NE,42,7.0,12.0,53,0.00,,,0.00,Wunderground v.1.15,2013-07-01 15:56:00,
2013-07-01 11:02:00,72.7,54.1,30.00,East,80,8.0,10.0,52,0.00,,,0.00,Wunderground v.1.15,2013-07-01 16:02:00,
2013-07-01 11:08:00,72.8,53.6,30.00,NE,55,10.0,20.0,51,0.00,,,0.00,Wunderground v.1.15,2013-07-01 16:08:00,
2013-07-01 11:14:00,73.0,53.3,30.00,ENE,67,10.0,14.0,50,0.00,,,0.00,Wunderground v.1.15,2013-07-01 16:14:00,
2013-07-01 11:20:00,73.1,54.9,30.00,ENE,59,10.0,17.0,53,0.00,,,0.00,Wunderground v.1.15,2013-07-01 16:20:00,
2013-07-01 11:26:00,73.2,52.9,30.00,NE,46,10.0,10.0,49,0.00,,,0.00,Wunderground v.1.15,2013-07-01 16:26:00,
2013-07-01 11:32:00,73.3,54.1,30.00,NE,44,10.0,13.0,51,0.00,,,0.00,Wunderground v.1.15,2013-07-01 16:32:00,
2013-07-01 11:38:00,73.5,55.3,30.00,ENE,58,8.0,13.0,53,0.00,,,0.00,Wunderground v.1.15,2013-07-01 16:38:00,
2013-07-01 11:44:00,73.8,54.5,30.00,NE,41,6.0,7.0,51,0.00,,,0.00,Wunderground v.1.15,2013-07-01 16:44:00,
2013-07-01 11:50:00,73.8,54.0,30.00,ENE,63,8.0,10.0,50,0.00,,,0.00,Wunderground v.1.15,2013-07-01 16:50:00,
2013-07-01 11:56:00,73.8,52.9,30.00,NE,34,10.0,10.0,48,0.00,,,0.00,Wunderground v.1.15,2013-07-01 16:56:00,
2013-07-01 12:02:00,74.1,54.3,29.99,ENE,61,10.0,10.0,50,0.00,,,0.00,Wunderground v.1.15,2013-07-01 17:02:00,
2013-07-01 12:08:00,74.4,55.1,30.00,NE,53,8.0,10.0,51,0.00,,,0.00,Wunderground v.1.15,2013-07-01 17:08:00,
2013-07-01 12:14:00,74.6,53.0,29.99,NE,40,8.0,11.0,47,0.00,,,0.00,Wunderground v.1.15,2013-07-01 17:14:00,
2013-07-01 12:20:00,74.6,53.6,29.99,NE,44,9.0,9.0,48,0.00,,,0.00,Wunderground v.1.15,2013-07-01 17:20:00,
2013-07-01 12:26:00,75.0,55.1,30.00,NE,44,8.0,12.0,50,0.00,,,0.00,Wunderground v.1.15,2013-07-01 17:26:00,
2013-07-01 12:32:00,75.1,54.1,30.00,NE,52,8.0,10.0,48,0.00,,,0.00,Wunderground v.1.15,2013-07-01 17:32:00,
2013-07-01 12:38:00,75.3,55.4,29.99,NE,48,8.0,10.0,50,0.00,,,0.00,Wunderground v.1.15,2013-07-01 17:38:00,
2013-07-01 12:44:00,75.4,53.8,29.99,NE,37,7.0,9.0,47,0.00,,,0.00,Wunderground v.1.15,2013-07-01 17:44:00,
2013-07-01 12:50:00,75.4,54.3,29.99,NE,54,7.0,9.0,48,0.00,,,0.00,Wunderground v.1.15,2013-07-01 17:50:00,
2013-07-01 12:56:00,75.3,53.1,29.99,NE,42,10.0,14.0,46,0.00,,,0.00,Wunderground v.1.15,2013-07-01 17:56:00,
2013-07-01 13:02:00,75.6,52.1,29.99,NE,41,10.0,13.0,44,0.00,,,0.00,Wunderground v.1.15,2013-07-01 18:02:00,
2013-07-01 13:08:00,75.5,52.7,29.99,NE,56,11.0,13.0,45,0.00,,,0.00,Wunderground v.1.15,2013-07-01 18:08:00,
2013-07-01 13:14:00,75.6,52.8,29.99,NE,47,11.0,12.0,45,0.00,,,0.00,Wunderground v.1.15,2013-07-01 18:14:00,
2013-07-01 13:20:00,75.8,53.5,29.99,NE,55,9.0,13.0,46,0.00,,,0.00,Wunderground v.1.15,2013-07-01 18:20:00,
2013-07-01 13:26:00,75.8,52.9,29.99,ENE,65,10.0,13.0,45,0.00,,,0.00,Wunderground v.1.15,2013-07-01 18:26:00,
2013-07-01 13:32:00,75.8,52.3,29.99,NE,54,12.0,13.0,44,0.00,,,0.00,Wunderground v.1.15,2013-07-01 18:32:00,
2013-07-01 13:38:00,76.1,52.0,29.99,NE,42,11.0,13.0,43,0.00,,,0.00,Wunderground v.1.15,2013-07-01 18:38:00,
2013-07-01 13:44:00,76.0,53.1,29.99,ENE,65,11.0,15.0,45,0.00,,,0.00,Wunderground v.1.15,2013-07-01 18:44:00,
2013-07-01 13:50:00,75.9,51.2,29.99,NE,46,12.0,15.0,42,0.00,,,0.00,Wunderground v.1.15,2013-07-01 18:50:00,
2013-07-01 13:56:00,76.0,54.3,29.99,NE,47,11.0,15.0,47,0.00,,,0.00,Wunderground v.1.15,2013-07-01 18:56:00,
2013-07-01 14:02:00,75.9,52.4,29.99,NE,47,11.0,12.0,44,0.00,,,0.00,Wunderground v.1.15,2013-07-01 19:02:00,
2013-07-01 14:08:00,75.8,52.3,29.99,ENE,60,12.0,14.0,44,0.00,,,0.00,Wunderground v.1.15,2013-07-01 19:08:00,
2013-07-01 14:14:00,75.9,52.4,29.99,NE,56,12.0,14.0,44,0.00,,,0.00,Wunderground v.1.15,2013-07-01 19:14:00,
2013-07-01 14:20:00,76.1,56.1,29.99,ENE,63,11.0,11.0,50,0.00,,,0.00,Wunderground v.1.15,2013-07-01 19:20:00,
2013-07-01 14:26:00,76.1,52.6,29.99,ENE,61,10.0,17.0,44,0.00,,,0.00,Wunderground v.1.15,2013-07-01 19:26:00,
2013-07-01 14:32:00,75.8,54.7,29.99,NE,41,13.0,16.0,48,0.00,,,0.00,Wunderground v.1.15,2013-07-01 19:32:00,
2013-07-01 14:38:00,75.7,52.2,29.99,NE,46,12.0,16.0,44,0.00,,,0.00,Wunderground v.1.15,2013-07-01 19:38:00,
2013-07-01 14:44:00,75.5,52.7,29.99,NNE,28,12.0,16.0,45,0.00,,,0.00,Wunderground v.1.15,2013-07-01 19:44:00,
2013-07-01 14:50:00,75.5,54.4,29.99,NE,51,11.0,11.0,48,0.00,,,0.00,Wunderground v.1.15,2013-07-01 19:50:00,
2013-07-01 14:56:00,75.6,53.9,29.98,NE,44,10.0,12.0,47,0.00,,,0.00,Wunderground v.1.15,2013-07-01 19:56:00,
2013-07-01 15:02:00,75.5,53.9,29.99,NE,54,11.0,14.0,47,0.00,,,0.00,Wunderground v.1.15,2013-07-01 20:02:00,
2013-07-01 15:08:00,75.3,53.7,29.99,NE,53,12.0,14.0,47,0.00,,,0.00,Wunderground v.1.15,2013-07-01 20:08:00,
2013-07-01 15:14:00,75.4,54.3,29.98,NE,52,11.0,11.0,48,0.00,,,0.00,Wunderground v.1.15,2013-07-01 20:14:00,
2013-07-01 15:20:00,75.4,52.6,29.98,NE,44,11.0,17.0,45,0.00,,,0.00,Wunderground v.1.15,2013-07-01 20:20:00,
2013-07-01 15:26:00,75.3,53.7,29.99,ENE,67,13.0,16.0,47,0.00,,,0.00,Wunderground v.1.15,2013-07-01 20:26:00,
2013-07-01 15:32:00,75.4,53.8,29.99,NE,49,12.0,12.0,47,0.00,,,0.00,Wunderground v.1.15,2013-07-01 20:32:00,
2013-07-01 15:38:00,75.2,52.4,29.99,NE,56,12.0,14.0,45,0.00,,,0.00,Wunderground v.1.15,2013-07-01 20:38:00,
2013-07-01 15:44:00,75.1,53.5,29.99,NE,54,13.0,20.0,47,0.00,,,0.00,Wunderground v.1.15,2013-07-01 20:44:00,
2013-07-01 15:50:00,75.0,52.8,29.99,NE,44,12.0,20.0,46,0.00,,,0.00,Wunderground v.1.15,2013-07-01 20:50:00,
2013-07-01 15:56:00,75.0,53.4,29.99,NE,53,11.0,15.0,47,0.00,,,0.00,Wunderground v.1.15,2013-07-01 20:56:00,
2013-07-01 16:02:00,74.9,52.7,29.99,NE,41,10.0,12.0,46,0.00,,,0.00,Wunderground v.1.15,2013-07-01 21:02:00,
2013-07-01 16:08:00,75.0,54.0,29.99,NE,55,10.0,12.0,48,0.00,,,0.00,Wunderground v.1.15,2013-07-01 21:08:00,
2013-07-01 16:14:00,75.1,54.1,29.99,ENE,64,10.0,10.0,48,0.00,,,0.00,Wunderground v.1.15,2013-07-01 21:14:00,
2013-07-01 16:20:00,75.1,54.1,30.00,NE,51,10.0,10.0,48,0.00,,,0.00,Wunderground v.1.15,2013-07-01 21:20:00,
2013-07-01 16:26:00,75.0,53.4,30.00,ENE,73,10.0,14.0,47,0.00,,,0.00,Wunderground v.1.15,2013-07-01 21:26:00,
2013-07-01 16:32:00,74.9,51.5,30.00,ENE,66,12.0,14.0,44,0.00,,,0.00,Wunderground v.1.15,2013-07-01 21:32:00,
2013-07-01 16:38:00,74.8,50.8,30.00,ENE,77,13.0,14.0,43,0.00,,,0.00,Wunderground v.1.15,2013-07-01 21:38:00,
2013-07-01 16:44:00,74.6,51.2,30.00,ENE,61,13.0,13.0,44,0.00,,,0.00,Wunderground v.1.15,2013-07-01 21:44:00,
2013-07-01 16:50:00,74.6,51.9,30.00,NNE,33,10.0,10.0,45,0.00,,,0.00,Wunderground v.1.15,2013-07-01 21:50:00,
2013-07-01 16:56:00,74.4,51.7,29.99,ENE,66,11.0,15.0,45,0.00,,,0.00,Wunderground v.1.15,2013-07-01 21:56:00,
2013-07-01 17:02:00,74.3,52.2,30.00,NE,40,12.0,12.0,46,0.00,,,0.00,Wunderground v.1.15,2013-07-01 22:02:00,
2013-07-01 17:08:00,74.3,54.5,29.99,East,82,11.0,12.0,50,0.00,,,0.00,Wunderground v.1.15,2013-07-01 22:08:00,
2013-07-01 17:14:00,74.2,52.7,29.99,NE,37,11.0,14.0,47,0.00,,,0.00,Wunderground v.1.15,2013-07-01 22:14:00,
2013-07-01 17:20:00,74.1,52.6,29.99,ENE,68,12.0,12.0,47,0.00,,,0.00,Wunderground v.1.15,2013-07-01 22:20:00,
2013-07-01 17:26:00,73.9,53.0,29.99,East,86,11.0,13.0,48,0.00,,,0.00,Wunderground v.1.15,2013-07-01 22:26:00,
2013-07-01 17:32:00,73.7,51.6,29.99,NE,46,10.0,12.0,46,0.00,,,0.00,Wunderground v.1.15,2013-07-01 22:32:00,
2013-07-01 17:38:00,73.5,52.6,29.99,ENE,67,10.0,12.0,48,0.00,,,0.00,Wunderground v.1.15,2013-07-01 22:38:00,
2013-07-01 17:44:00,73.3,51.8,29.99,ENE,69,10.0,15.0,47,0.00,,,0.00,Wunderground v.1.15,2013-07-01 22:44:00,
2013-07-01 17:50:00,73.2,53.4,29.99,ENE,61,10.0,10.0,50,0.00,,,0.00,Wunderground v.1.15,2013-07-01 22:50:00,
2013-07-01 17:56:00,73.0,52.7,29.99,NE,49,9.0,11.0,49,0.00,,,0.00,Wunderground v.1.15,2013-07-01 22:56:00,
2013-07-01 18:02:00,72.9,53.2,29.99,NNE,30,9.0,9.0,50,0.00,,,0.00,Wunderground v.1.15,2013-07-01 23:02:00,
2013-07-01 18:08:00,72.8,53.1,29.99,ENE,59,9.0,12.0,50,0.00,,,0.00,Wunderground v.1.15,2013-07-01 23:08:00,
2013-07-01 18:14:00,72.7,52.4,30.00,NE,48,9.0,10.0,49,0.00,,,0.00,Wunderground v.1.15,2013-07-01 23:14:00,
2013-07-01 18:20:00,72.5,53.3,30.00,NE,46,9.0,12.0,51,0.00,,,0.00,Wunderground v.1.15,2013-07-01 23:20:00,
2013-07-01 18:26:00,72.3,53.7,30.00,ENE,57,8.0,9.0,52,0.00,,,0.00,Wunderground v.1.15,2013-07-01 23:26:00,
2013-07-01 18:32:00,72.2,53.6,30.00,NE,56,9.0,9.0,52,0.00,,,0.00,Wunderground v.1.15,2013-07-01 23:32:00,
2013-07-01 18:38:00,72.0,53.9,30.00,ENE,62,8.0,12.0,53,0.00,,,0.00,Wunderground v.1.15,2013-07-01 23:38:00,
2013-07-01 18:44:00,71.9,54.3,30.00,NE,50,8.0,8.0,54,0.00,,,0.00,Wunderground v.1.15,2013-07-01 23:44:00,
2013-07-01 18:50:00,71.7,53.7,30.00,ENE,59,7.0,8.0,53,0.00,,,0.00,Wunderground v.1.15,2013-07-01 23:50:00,
2013-07-01 18:56:00,71.6,54.1,30.00,NE,53,6.0,7.0,54,0.00,,,0.00,Wunderground v.1.15,2013-07-01 23:56:00,
2013-07-01 19:02:00,71.4,53.9,30.00,NE,51,7.0,9.0,54,0.00,,,0.00,Wunderground v.1.15,2013-07-02 00:02:00,
2013-07-01 19:08:00,71.3,54.3,30.00,NE,50,7.0,9.0,55,0.00,,,0.00,Wunderground v.1.15,2013-07-02 00:08:00,
2013-07-01 19:14:00,71.1,54.6,30.00,NE,51,6.0,6.0,56,0.00,,,0.00,Wunderground v.1.15,2013-07-02 00:14:00,
2013-07-01 19:20:00,70.8,54.8,30.00,NE,54,4.0,6.0,57,0.00,,,0.00,Wunderground v.1.15,2013-07-02 00:20:00,
2013-07-01 19:26:00,70.6,54.6,30.00,NE,47,4.0,4.0,57,0.00,,,0.00,Wunderground v.1.15,2013-07-02 00:26:00,
2013-07-01 19:32:00,70.3,54.8,30.00,NE,53,5.0,5.0,58,0.00,,,0.00,Wunderground v.1.15,2013-07-02 00:32:00,
2013-07-01 19:38:00,70.0,55.0,30.00,ENE,64,4.0,5.0,59,0.00,,,0.00,Wunderground v.1.15,2013-07-02 00:38:00,
2013-07-01 19:44:00,69.7,54.3,30.00,NE,56,4.0,5.0,58,0.00,,,0.00,Wunderground v.1.15,2013-07-02 00:44:00,
2013-07-01 19:50:00,69.5,54.5,30.00,NE,46,4.0,5.0,59,0.00,,,0.00,Wunderground v.1.15,2013-07-02 00:50:00,
2013-07-01 19:56:00,69.2,55.2,30.00,NE,53,3.0,4.0,61,0.00,,,0.00,Wunderground v.1.15,2013-07-02 00:56:00,
2013-07-01 20:02:00,68.8,54.8,30.01,NE,51,2.0,3.0,61,0.00,,,0.00,Wunderground v.1.15,2013-07-02 01:02:00,
2013-07-01 20:08:00,68.4,55.3,30.01,NE,51,2.0,4.0,63,0.00,,,0.00,Wunderground v.1.15,2013-07-02 01:08:00,
2013-07-01 20:14:00,67.8,55.6,30.01,NE,51,1.0,2.0,65,0.00,,,0.00,Wunderground v.1.15,2013-07-02 01:14:00,
2013-07-01 20:20:00,67.2,55.5,30.01,NE,51,0.0,2.0,66,0.00,,,0.00,Wunderground v.1.15,2013-07-02 01:20:00,
2013-07-01 20:26:00,66.6,55.3,30.01,NE,51,1.0,2.0,67,0.00,,,0.00,Wunderground v.1.15,2013-07-02 01:26:00,
2013-07-01 20:32:00,66.3,55.0,30.01,NE,47,2.0,3.0,67,0.00,,,0.00,Wunderground v.1.15,2013-07-02 01:32:00,
2013-07-01 20:38:00,66.1,55.2,30.01,NE,47,2.0,3.0,68,0.00,,,0.00,Wunderground v.1.15,2013-07-02 01:38:00,
2013-07-01 20:44:00,65.7,54.8,30.01,NE,47,1.0,3.0,68,0.00,,,0.00,Wunderground v.1.15,2013-07-02 01:44:00,
2013-07-01 20:50:00,65.4,55.0,30.01,NE,47,1.0,3.0,69,0.00,,,0.00,Wunderground v.1.15,2013-07-02 01:50:00,
2013-07-01 20:56:00,65.0,54.6,30.01,NE,47,1.0,2.0,69,0.00,,,0.00,Wunderground v.1.15,2013-07-02 01:56:00,
2013-07-01 21:02:00,64.7,54.7,30.01,NE,47,1.0,1.0,70,0.00,,,0.00,Wunderground v.1.15,2013-07-02 02:02:00,
2013-07-01 21:08:00,64.4,54.8,30.01,NE,47,1.0,2.0,71,0.00,,,0.00,Wunderground v.1.15,2013-07-02 02:08:00,
2013-07-01 21:14:00,64.1,54.9,30.01,NE,47,1.0,2.0,72,0.00,,,0.00,Wunderground v.1.15,2013-07-02 02:14:00,
2013-07-01 21:20:00,63.9,54.7,30.01,NE,47,2.0,2.0,72,0.00,,,0.00,Wunderground v.1.15,2013-07-02 02:20:00,
2013-07-01 21:26:00,63.5,54.7,30.01,NE,47,2.0,2.0,73,0.00,,,0.00,Wunderground v.1.15,2013-07-02 02:26:00,
2013-07-01 21:32:00,63.1,54.7,30.02,NE,47,1.0,1.0,74,0.00,,,0.00,Wunderground v.1.15,2013-07-02 02:32:00,
2013-07-01 21:38:00,62.6,54.9,30.02,NE,47,1.0,2.0,76,0.00,,,0.00,Wunderground v.1.15,2013-07-02 02:38:00,
2013-07-01 21:44:00,62.1,55.2,30.02,NE,47,1.0,1.0,78,0.00,,,0.00,Wunderground v.1.15,2013-07-02 02:44:00,
2013-07-01 21:50:00,61.4,55.5,30.02,NE,47,0.0,1.0,81,0.00,,,0.00,Wunderground v.1.15,2013-07-02 02:50:00,
2013-07-01 21:56:00,60.7,55.2,30.02,NE,47,0.0,2.0,82,0.00,,,0.00,Wunderground v.1.15,2013-07-02 02:56:00,
2013-07-01 22:02:00,60.3,55.1,30.02,NE,47,1.0,1.0,83,0.00,,,0.00,Wunderground v.1.15,2013-07-02 03:02:00,
2013-07-01 22:08:00,60.0,55.2,30.02,NE,47,0.0,1.0,84,0.00,,,0.00,Wunderground v.1.15,2013-07-02 03:08:00,
2013-07-01 22:14:00,59.6,54.8,30.02,NE,47,0.0,0.0,84,0.00,,,0.00,Wunderground v.1.15,2013-07-02 03:14:00,
2013-07-01 22:20:00,59.5,54.7,30.02,NE,47,0.0,0.0,84,0.00,,,0.00,Wunderground v.1.15,2013-07-02 03:20:00,
2013-07-01 22:26:00,59.8,54.6,30.02,NE,47,0.0,1.0,83,0.00,,,0.00,Wunderground v.1.15,2013-07-02 03:26:00,
2013-07-01 22:32:00,60.3,54.4,30.02,NE,47,0.0,0.0,81,0.00,,,0.00,Wunderground v.1.15,2013-07-02 03:32:00,
2013-07-01 22:38:00,60.6,54.4,30.02,NE,47,0.0,0.0,80,0.00,,,0.00,Wunderground v.1.15,2013-07-02 03:38:00,
2013-07-01 22:44:00,60.9,54.3,30.02,NE,47,0.0,0.0,79,0.00,,,0.00,Wunderground v.1.15,2013-07-02 03:44:00,
2013-07-01 22:50:00,61.0,54.1,30.02,NE,47,0.0,0.0,78,0.00,,,0.00,Wunderground v.1.15,2013-07-02 03:50:00,
2013-07-01 22:56:00,61.1,54.2,30.02,NE,47,1.0,2.0,78,0.00,,,0.00,Wunderground v.1.15,2013-07-02 03:56:00,
2013-07-01 23:02:00,61.1,53.8,30.02,NE,47,1.0,3.0,77,0.00,,,0.00,Wunderground v.1.15,2013-07-02 04:02:00,
2013-07-01 23:04:00,61.1,53.8,30.02,NE,47,2.0,3.0,77,0.00,,,0.00,Wunderground v.1.15,2013-07-02 04:04:00,
2013-07-01 23:08:00,61.1,53.8,30.02,NE,47,2.0,4.0,77,0.00,,,0.00,Wunderground v.1.15,2013-07-02 04:08:00,
2013-07-01 23:14:00,60.9,54.0,30.02,NE,47,2.0,3.0,78,0.00,,,0.00,Wunderground v.1.15,2013-07-02 04:14:00,
2013-07-01 23:20:00,60.5,53.6,30.02,NE,47,1.0,1.0,78,0.00,,,0.00,Wunderground v.1.15,2013-07-02 04:20:00,
2013-07-01 23:24:00,60.3,53.8,30.02,NE,47,0.0,1.0,79,0.00,,,0.00,Wunderground v.1.15,2013-07-02 04:24:00,
2013-07-01 23:30:00,60.1,53.6,30.02,NE,47,0.0,1.0,79,0.00,,,0.00,Wunderground v.1.15,2013-07-02 04:30:00,
2013-07-01 23:36:00,60.2,53.3,30.02,NE,47,0.0,1.0,78,0.00,,,0.00,Wunderground v.1.15,2013-07-02 04:36:00,
2013-07-01 23:42:00,60.2,53.0,30.02,NE,47,1.0,1.0,77,0.00,,,0.00,Wunderground v.1.15,2013-07-02 04:42:00,
2013-07-01 23:48:00,60.4,52.4,30.02,NE,47,1.0,3.0,75,0.00,,,0.00,Wunderground v.1.15,2013-07-02 04:48:00,
2013-07-01 23:54:00,60.5,52.5,30.02,NE,47,1.0,3.0,75,0.00,,,0.00,Wunderground v.1.15,2013-07-02 04:54:00,